When you browse on this site, cookies collect data to enhance your experience and personalize the content and advertising you see.
Visit our Privacy Policy to learn more. By continuing to use the site, you agree to this use of cookies and data.
  • In Hungary
  • List of Countries
  • For 7 days
  • Water Temperature
  • Satellite Maps
  • Weather Map
  • News
  • Weather Widgets
  • user-avatar
    Login

    Hourly Weather Mingora

    Today, 21 November, Wednesday

    Time Temperature Precipitation Wind Pressure Humidity
    00:00 +11°C° 0 mm 3 mps 679 mmHg 35%
    01:00 +11°C° 0 mm 3 mps 678 mmHg 34%
    02:00 +11°C° 0 mm 3 mps 678 mmHg 33%
    03:00 +11°C° 0 mm 3 mps 678 mmHg 32%
    04:00 +11°C° 0 mm 4 mps 678 mmHg 31%
    05:00 +10°C° 0 mm 3 mps 678 mmHg 33%
    06:00 +11°C° 0 mm 3 mps 678 mmHg 31%
    07:00 +11°C° 0 mm 3 mps 678 mmHg 30%
    08:00 +12°C° 0 mm 4 mps 678 mmHg 28%
    09:00 +16°C° 0 mm 3 mps 679 mmHg 24%
    10:00 +18°C° 0 mm 2 mps 679 mmHg 20%
    11:00 +22°C° 0 mm 1 mps 680 mmHg 16%
    12:00 +22°C° 0 mm 1 mps 679 mmHg 16%
    13:00 +22°C° 0 mm 1 mps 679 mmHg 17%
    14:00 +23°C° 0 mm 1 mps 679 mmHg 17%
    15:00 +21°C° 0 mm 1 mps 678 mmHg 20%
    16:00 +19°C° 0 mm 1 mps 678 mmHg 24%
    17:00 +16°C° 0 mm 1 mps 677 mmHg 27%
    18:00 +16°C° 0 mm 1 mps 677 mmHg 26%
    19:00 +16°C° 0 mm 2 mps 678 mmHg 25%
    20:00 +14°C° 0 mm 3 mps 678 mmHg 25%
    21:00 +14°C° 0 mm 3 mps 678 mmHg 25%
    22:00 +14°C° 0 mm 3 mps 678 mmHg 25%
    23:00 +14°C° 0 mm 3 mps 678 mmHg 24%

    Tomorrow, 22 November, Thursday

    Time Temperature Precipitation Wind Pressure Humidity
    00:00 +14°C° 0 mm 3 mps 678 mmHg 25%
    01:00 +13°C° 0 mm 3 mps 678 mmHg 25%
    02:00 +13°C° 0 mm 3 mps 677 mmHg 25%
    03:00 +13°C° 0 mm 3 mps 677 mmHg 26%
    04:00 +13°C° 0 mm 3 mps 677 mmHg 27%
    05:00 +13°C° 0 mm 3 mps 677 mmHg 27%
    06:00 +13°C° 0 mm 3 mps 677 mmHg 29%
    07:00 +13°C° 0 mm 3 mps 677 mmHg 30%
    08:00 +13°C° 0 mm 3 mps 678 mmHg 31%
    09:00 +16°C° 0 mm 3 mps 678 mmHg 29%
    10:00 +17°C° 0 mm 2 mps 679 mmHg 28%
    11:00 +18°C° 0 mm 2 mps 679 mmHg 26%
    12:00 +17°C° 0 mm 2 mps 679 mmHg 28%
    13:00 +17°C° 0 mm 2 mps 679 mmHg 29%
    14:00 +18°C° 0 mm 1 mps 679 mmHg 31%
    15:00 +16°C° 0 mm 1 mps 679 mmHg 34%
    16:00 +15°C° 0 mm 1 mps 679 mmHg 38%
    17:00 +14°C° 0 mm 1 mps 679 mmHg 42%
    18:00 +13°C° 0 mm 2 mps 679 mmHg 42%
    19:00 +12°C° 0 mm 2 mps 680 mmHg 42%
    20:00 +11°C° 0 mm 3 mps 680 mmHg 43%
    21:00 +10°C° 0 mm 3 mps 680 mmHg 42%
    22:00 +10°C° 0 mm 3 mps 681 mmHg 42%
    23:00 +9°C° 0 mm 3 mps 681 mmHg 42%

    Day after tomorrow, 23 November, Friday

    Time Temperature Precipitation Wind Pressure Humidity
    00:00 +9°C° 0 mm 3 mps 681 mmHg 40%
    01:00 +9°C° 0 mm 3 mps 681 mmHg 39%
    02:00 +9°C° 0 mm 3 mps 681 mmHg 38%
    03:00 +9°C° 0 mm 3 mps 681 mmHg 37%
    04:00 +8°C° 0 mm 4 mps 681 mmHg 36%
    05:00 +8°C° 0 mm 4 mps 681 mmHg 35%
    06:00 +8°C° 0 mm 4 mps 681 mmHg 33%
    07:00 +10°C° 0 mm 4 mps 682 mmHg 32%
    08:00 +11°C° 0 mm 4 mps 682 mmHg 30%
    09:00 +13°C° 0 mm 3 mps 682 mmHg 26%
    10:00 +17°C° 0 mm 2 mps 682 mmHg 22%
    11:00 +21°C° 0 mm 1 mps 683 mmHg 17%
    12:00 +21°C° 0 mm 1 mps 682 mmHg 17%
    13:00 +22°C° 0 mm 1 mps 682 mmHg 17%
    14:00 +22°C° 0 mm 1 mps 681 mmHg 16%
    15:00 +20°C° 0 mm 1 mps 681 mmHg 20%
    16:00 +18°C° 0 mm 1 mps 680 mmHg 23%
    17:00 +16°C° 0 mm 1 mps 680 mmHg 27%
    18:00 +15°C° 0 mm 2 mps 680 mmHg 27%
    19:00 +13°C° 0 mm 3 mps 680 mmHg 26%
    20:00 +12°C° 0 mm 4 mps 681 mmHg 26%
    21:00 +12°C° 0 mm 4 mps 681 mmHg 25%
    22:00 +12°C° 0 mm 4 mps 680 mmHg 24%
    23:00 +11°C° 0 mm 4 mps 680 mmHg 23%

    24 November, Saturday

    Time Temperature Precipitation Wind Pressure Humidity
    00:00 +11°C° 0 mm 4 mps 680 mmHg 23%
    01:00 +11°C° 0 mm 4 mps 680 mmHg 22%
    02:00 +11°C° 0 mm 4 mps 679 mmHg 22%
    03:00 +11°C° 0 mm 4 mps 679 mmHg 21%
    04:00 +11°C° 0 mm 4 mps 679 mmHg 21%
    05:00 +11°C° 0 mm 4 mps 679 mmHg 21%
    06:00 +12°C° 0 mm 4 mps 679 mmHg 21%
    07:00 +12°C° 0 mm 4 mps 679 mmHg 21%
    08:00 +13°C° 0 mm 4 mps 679 mmHg 22%
    09:00 +17°C° 0 mm 3 mps 680 mmHg 19%
    10:00 +20°C° 0 mm 2 mps 680 mmHg 16%
    11:00 +24°C° 0 mm 1 mps 681 mmHg 13%
    12:00 +25°C° 0 mm 1 mps 680 mmHg 13%
    13:00 +25°C° 0 mm 1 mps 680 mmHg 13%
    14:00 +25°C° 0 mm 2 mps 679 mmHg 13%
    15:00 +23°C° 0 mm 1 mps 678 mmHg 17%
    16:00 +21°C° 0 mm 1 mps 678 mmHg 20%
    17:00 +19°C° 0 mm 1 mps 677 mmHg 24%
    18:00 +17°C° 0 mm 2 mps 678 mmHg 23%
    19:00 +17°C° 0 mm 2 mps 678 mmHg 23%
    20:00 +16°C° 0 mm 3 mps 678 mmHg 23%
    21:00 +16°C° 0 mm 3 mps 678 mmHg 23%
    22:00 +16°C° 0 mm 3 mps 678 mmHg 23%
    23:00 +16°C° 0 mm 3 mps 678 mmHg 23%

    25 November, Sunday

    Time Temperature Precipitation Wind Pressure Humidity
    00:00 +16°C° 0 mm 3 mps 678 mmHg 23%
    01:00 +14°C° 0 mm 3 mps 678 mmHg 23%
    02:00 +14°C° 0 mm 3 mps 678 mmHg 23%
    03:00 +14°C° 0 mm 3 mps 677 mmHg 23%
    04:00 +13°C° 0 mm 3 mps 677 mmHg 23%
    05:00 +13°C° 0 mm 3 mps 677 mmHg 23%
    06:00 +13°C° 0 mm 3 mps 677 mmHg 24%
    07:00 +14°C° 0 mm 3 mps 678 mmHg 24%
    08:00 +14°C° 0 mm 3 mps 678 mmHg 25%
    09:00 +18°C° 0 mm 2 mps 679 mmHg 21%
    10:00 +21°C° 0 mm 2 mps 679 mmHg 18%
    11:00 +24°C° 0 mm 1 mps 680 mmHg 15%
    12:00 +25°C° 0 mm 1 mps 679 mmHg 15%
    13:00 +25°C° 0 mm 1 mps 679 mmHg 15%
    14:00 +25°C° 0 mm 2 mps 678 mmHg 15%
    15:00 +23°C° 0 mm 1 mps 678 mmHg 18%
    16:00 +21°C° 0 mm 1 mps 677 mmHg 22%
    17:00 +19°C° 0 mm 1 mps 677 mmHg 26%
    18:00 +17°C° 0 mm 2 mps 677 mmHg 26%
    19:00 +17°C° 0 mm 2 mps 678 mmHg 26%
    20:00 +16°C° 0 mm 3 mps 678 mmHg 26%
    21:00 +14°C° 0 mm 3 mps 678 mmHg 26%
    22:00 +14°C° 0 mm 3 mps 678 mmHg 26%
    23:00 +14°C° 0 mm 3 mps 678 mmHg 26%

    26 November, Monday

    Time Temperature Precipitation Wind Pressure Humidity
    00:00 +13°C° 0 mm 3 mps 678 mmHg 25%
    01:00 +13°C° 0 mm 3 mps 678 mmHg 25%
    02:00 +13°C° 0 mm 3 mps 678 mmHg 24%
    03:00 +13°C° 0 mm 3 mps 677 mmHg 24%
    04:00 +12°C° 0 mm 3 mps 677 mmHg 24%
    05:00 +12°C° 0 mm 3 mps 677 mmHg 23%
    06:00 +13°C° 0 mm 3 mps 678 mmHg 23%
    07:00 +13°C° 0 mm 3 mps 678 mmHg 24%
    08:00 +14°C° 0 mm 3 mps 679 mmHg 24%
    09:00 +17°C° 0 mm 3 mps 679 mmHg 20%
    10:00 +20°C° 0 mm 2 mps 679 mmHg 17%
    11:00 +24°C° 0 mm 1 mps 680 mmHg 14%
    12:00 +24°C° 0 mm 1 mps 679 mmHg 14%
    13:00 +25°C° 0 mm 1 mps 679 mmHg 14%
    14:00 +25°C° 0 mm 1 mps 678 mmHg 14%
    15:00 +23°C° 0 mm 1 mps 678 mmHg 17%
    16:00 +21°C° 0 mm 1 mps 677 mmHg 21%
    17:00 +19°C° 0 mm 1 mps 677 mmHg 24%
    18:00 +17°C° 0 mm 2 mps 677 mmHg 24%
    19:00 +16°C° 0 mm 2 mps 678 mmHg 24%
    20:00 +16°C° 0 mm 3 mps 678 mmHg 23%
    21:00 +16°C° 0 mm 3 mps 678 mmHg 23%
    22:00 +14°C° 0 mm 3 mps 678 mmHg 23%
    23:00 +14°C° 0 mm 3 mps 678 mmHg 22%
    Show more